TIBA-1

Last updated on Jan. 19, 2020, 4:37 a.m. UTC

1 44800U 19080A   20018.85604980  .00000151  00000-0  10000-3 0  9996
2 44800   0.0317 163.0415 0002313 124.5958 173.6843  1.00270462   602
UTC
Height (km)
Latitude
Longitude
Inclination
Orbital Period
UTC large
Height (km)
Speed (km/s)
/
Latitude / Longitude
Inclination (degrees)
Orbital Period (minutes)
Azimuth
Elevation
Range (km)
Doppler Factor
iOS Compass Heading
iOS Angle

Next 30 passes for location: Hong Kong

Rise time Rise Azimuth (degrees) Set time Set Azimuth (degrees) Duration Max altitude (degrees)

No matching passes for this satellites